Вернуться в каталог

SL-12 R/B(2)

АктивенGEO
NORAD 34265·ROCKET BODY·🇷🇺 Russia

Запущен Feb 28, 2009 с Baikonur Cosmodrome

Loading…

TLE

СвежийSource: Space-Track

Эпоха: Sep 14, 2026, 07:30 UTC

1 34265U 09010B   26257.31269115 -.00000351  00000-0  00000-0 0  9990
2 34265  12.2772  40.7749 0002178 291.3471 248.0402  1.00003911 64082

Отслеживайте SL-12 R/B(2) в реальном времени с AllMySat

Download on the App Store